This demonstration page uses our WeatherBlox Daily Observations layout. Learn more.

38.89511, -77.03637

Hourly Observations for February 8, 2020

Temp ( °F °C ) Dew Point ( °F °C ) Humidity (%) Winds ( mph kmh ) Pressure ( in mb ) Visibility ( mi km ) Precip ( " mm )
12:52 am 00:52 Mostly Clear 36 2.2 21 -6.1 55 55 W 12 19 30 1016 10 16.0934 0 0
1:52 am 01:52 Partly Cloudy 35 1.7 21 -6.1 57 57 W 7 11 30.03 1017 10 16.0934 0 0
2:52 am 02:52 Mostly Cloudy 35 1.7 20 -6.7 54 54 W 10 17 30.06 1018 10 16.0934 0 0
3:52 am 03:52 Mostly Clear 34 1.1 20 -6.7 56 56 W 9 15 30.1 1019 10 16.0934 0 0
4:52 am 04:52 Mostly Clear 33 0.6 19 -7.2 56 56 WSW 8 13 30.14 1021 10 16.0934 0 0
5:52 am 05:52 Mostly Cloudy 32 0 19 -7.2 59 59 SSW 7 11 30.17 1022 10 16.0934 0 0
6:52 am 06:52 Mostly Cloudy 32 0 20 -6.7 61 61 SSW 6 9 30.2 1023 10 16.0934 0 0
7:52 am 07:52 Partly Cloudy 34 1.1 20 -6.7 56 56 SSW 7 11 30.23 1024 10 16.0934 0 0
8:52 am 08:52 Mostly Sunny 36 2.2 21 -6.1 55 55 SW 9 15 30.25 1025 10 16.0934 0 0
9:52 am 09:52 Mostly Sunny 40 4.4 19 -7.2 43 43 WSW 13 20 30.27 1025 10 16.0934 0 0
10:52 am 10:52 Partly Cloudy 42 5.6 20 -6.7 41 41 WSW 9 15 30.27 1025 10 16.0934 0 0
11:52 am 11:52 Partly Cloudy 43 6.1 20 -6.7 40 40 WSW 12 19 30.27 1025 10 16.0934 0 0
12:52 pm 12:52 Partly Cloudy 44 6.7 20 -6.7 38 38 W 9 15 30.23 1024 10 16.0934 0 0
1:52 pm 13:52 Mostly Cloudy 45 7.2 19 -7.2 35 35 VRB 5 7 30.22 1023 10 16.0934 0 0
2:52 pm 14:52 Mostly Cloudy 44 6.7 21 -6.1 40 40 S 8 13 30.23 1024 10 16.0934 0 0
3:52 pm 15:52 Mostly Cloudy 44 6.7 20 -6.7 38 38 SSW 10 17 30.23 1024 10 16.0934 0 0
4:52 pm 16:52 Mostly Cloudy 43 6.1 22 -5.6 43 43 S 10 17 30.24 1024 10 16.0934 0 0
5:52 pm 17:52 Partly Cloudy 41 5 21 -6.1 45 45 SSW 8 13 30.26 1025 10 16.0934 0 0
6:52 pm 18:52 Partly Cloudy 41 5 23 -5 49 49 S 6 9 30.28 1025 10 16.0934 0 0
7:52 pm 19:52 Mostly Clear 40 4.4 26 -3.3 58 58 SSE 5 7 30.29 1026 10 16.0934 0 0
8:52 pm 20:52 Clear 39 3.9 24 -4.4 55 55 SSE 7 11 30.3 1026 10 16.0934 0 0
9:52 pm 21:52 Clear 38 3.3 26 -3.3 62 62 SSE 6 9 30.32 1027 10 16.0934 0 0
10:52 pm 22:52 Mostly Clear 37 2.8 26 -3.3 65 65 SSE 5 7 30.33 1027 10 16.0934 0 0
11:52 pm 23:52 Mostly Cloudy 37 2.8 27 -2.8 67 67 SSE 5 7 30.34 1027 10 16.0934 0 0

Powered by AerisWeather